Location: Lake Sonoma
(38.7200°N, 123.0564°W)
Time: 04:16:24
(UTC-08:00)

ISS - Visible Passes

Search period start: 24 February 2018 00:00
Search period end: 06 March 2018 00:00
Orbit: 402 x 407 km, 51.6° (Epoch: 24 February)

Date Brightness Start Highest point End Pass type
(mag) Time Alt. Az. Time Alt. Az. Time Alt. Az.
25 Feb -1.6 05:55:10 10° SSW 05:57:57 26° SE 06:00:44 10° ENE visible
26 Feb -0.9 05:04:16 10° SSE 05:05:56 13° SE 05:07:35 10° E visible
27 Feb -3.6 05:46:51 12° SW 05:49:49 70° SE 05:53:05 10° NE visible
28 Feb -2.4 04:57:19 32° SSE 04:57:39 33° SE 05:00:39 10° ENE visible
01 Mar -0.3 04:07:36 11° E 04:07:36 11° E 04:07:46 10° E visible
01 Mar -3.4 05:40:17 25° W 05:41:47 45° NW 05:44:57 10° NE visible
02 Mar -2.8 04:50:23 44° NE 04:50:23 44° NE 04:52:46 10° NE visible
03 Mar -2.3 05:33:03 21° NW 05:33:51 23° NNW 05:36:33 10° NNE visible
04 Mar -1.8 04:42:55 23° NNE 04:42:55 23° NNE 04:44:29 10° NE visible
05 Mar -1.6 05:25:23 14° NNW 05:26:00 14° NNW 05:27:55 10° NNE visible
